Orbital Elements at Epoch 2459000.5 (2020-May-31.0) TDB
Reference: JPL 17 (heliocentric ecliptic J2000)
Element | Value | Uncertainty (1-sigma) | Units |
e | .2291605055554231 | 2.5481e-08 | |
a | 2.305439945799977 | 7.3504e-09 | au |
q | 1.777124162292787 | 5.7771e-08 | au |
i | 3.522273078371745 | 4.606e-06 | deg |
node | 195.7552890384841 | 5.3875e-05 | deg |
peri | 251.7143140100201 | 5.6055e-05 | deg |
M | 70.26767372213627 | 1.2315e-05 | deg |
tp | 2458750.935836233219 (2019-Sep-24.43583623) | 4.3565e-05 | TDB |
period | 1278.583653008254 3.50 | 6.1147e-06 1.674e-08 | d yr |
n | .2815615537966494 | 1.3465e-09 | deg/d |
Q | 2.833755729307167 | 9.0348e-09 | au |
|
| | Orbit Determination Parameters
Additional Information
|